Savannah Hunter, GA

11:52 AM EDT on October 18, 2017 (GMT -0400)
Hunter Army Air Field

Weather History for KSVN - February, 2013

Change the Weather History Date:

Monday, February 18, 2013

  Actual Average Record
Temperature  
Mean Temperature 40 °F -  
Max Temperature 55 °F 64 °F 79 °F (2011)
Min Temperature 26 °F 42 °F 26 °F (2013)
Degree Days  
Heating Degree Days 24    
Moisture  
Dew Point 24 °F    
Average Humidity 55    
Maximum Humidity 81    
Minimum Humidity 21    
Precipitation  
Precipitation 0.00 in - - ()
Sea Level Pressure  
Sea Level Pressure 30.36 in    
Wind  
Wind Speed 2 mph (ESE)    
Max Wind Speed 9 mph    
Max Gust Speed -    
Visibility 10 miles    
Events      
Averages and records for this station are not official NWS values.
T = Trace of Precipitation, MM = Missing Value Source: NWS Daily Summary

Daily Weather History Graph

Daily Weather History Graph

Search for Another Location

Airport or City:

Trip Planner

Search our weather history database for the weather conditions in past years. The results will help you decide how hot, cold, wet, or windy it might be!

Date:

Astronomy

Feb. 18, 2013 Rise Set
Actual Time 7:03 AM EST 6:13 PM EST
Civil Twilight 6:38 AM EST 6:38 PM EST
Nautical Twilight 6:10 AM EST 7:07 PM EST
Astronomical Twilight 5:41 AM EST 7:35 PM EST
Moon 12:08 PM EST 1:32 AM EST
Length of Visible Light 11h 59m
Length of Day
11h 10m
First Quarter, 58% of the Moon is Illuminated
Feb 18
First Quarter
Feb 25
Full
Mar 4
Last Quarter
Mar 11
New
Mar 19
First Quarter

Hourly Weather History & Observations

Time (EST) Temp. Windchill Dew Point Humidity Pressure Visibility Wind Dir Wind Speed Gust Speed Precip Events Conditions
12:59 AM 29.1 °F - 21.4 °F 73% 30.35 in 10.0 mi Calm Calm - N/A   Clear
1:59 AM 27.3 °F - 20.1 °F 74% 30.35 in 10.0 mi North - - N/A   Clear
2:59 AM 28.4 °F - 21.4 °F 75% 30.35 in 10.0 mi Calm Calm - N/A   Clear
3:58 AM 28.4 °F - 21.0 °F 74% 30.35 in 10.0 mi Calm Calm - N/A   Clear
4:58 AM 27.7 °F - 22.3 °F 80% 30.36 in 10.0 mi Calm Calm - N/A   Clear
5:58 AM 26.2 °F - 20.8 °F 80% 30.38 in 10.0 mi Calm Calm - N/A   Clear
6:58 AM 26.2 °F - 20.3 °F 78% 30.39 in 10.0 mi Calm Calm - N/A   Clear
7:58 AM 29.5 °F - 24.4 °F 81% 30.41 in 10.0 mi Calm Calm - N/A   Clear
8:58 AM 40.1 °F - 26.1 °F 57% 30.42 in 10.0 mi Calm Calm - N/A   Clear
9:58 AM 48.0 °F - 20.7 °F 34% 30.43 in 10.0 mi North 2.3 mph - N/A   Clear
10:59 AM 51.8 °F - 14.0 °F 22% 30.43 in 10.0 mi NE 5.8 mph - N/A   Clear
11:58 AM 53.8 °F - 14.9 °F 22% 30.44 in 10.0 mi ENE 4.6 mph - N/A   Clear
12:58 PM 55.9 °F - 21.0 °F 26% 30.40 in 10.0 mi Variable 5.8 mph - N/A   Clear
1:58 PM 54.7 °F - 15.3 °F 21% 30.37 in 10.0 mi SSE 8.1 mph - N/A   Clear
2:58 PM 55.0 °F - 18.5 °F 24% 30.36 in 10.0 mi ESE 9.2 mph - N/A   Clear
3:58 PM 53.8 °F - 21.0 °F 28% 30.36 in 10.0 mi SE 9.2 mph - N/A   Clear
4:58 PM 53.1 °F - 23.2 °F 31% 30.36 in 10.0 mi SE 6.9 mph - N/A   Clear
5:58 PM 50.4 °F - 27.7 °F 42% 30.35 in 10.0 mi ESE 6.9 mph - N/A   Clear
6:58 PM 47.1 °F - 29.7 °F 51% 30.34 in 10.0 mi SE 3.5 mph - N/A   Clear
7:58 PM 44.1 °F - 29.8 °F 57% 30.33 in 10.0 mi Calm Calm - N/A   Clear
8:58 PM 42.1 °F - 30.7 °F 64% 30.30 in 10.0 mi East 2.3 mph - N/A   Clear
9:58 PM 42.6 °F 40.9 °F 33.3 °F 69% 30.29 in 10.0 mi East 3.5 mph - N/A   Partly Cloudy
10:58 PM 41.9 °F 40.0 °F 34.0 °F 73% 30.27 in 10.0 mi East 3.5 mph - N/A   Clear
11:58 PM 42.1 °F - 34.7 °F 75% 30.25 in 10.0 mi East 2.3 mph - N/A   Clear